Regional Weather Roundup
Issued by NWS

Home | Current Version | Previous Version | Text Only | Print | Product List | Glossary Off
Versions: 1 2 3 4 5 6 7 8 9 10 11 12 13 14 15 16 17 18 19 20 21 22 23 24 25 26 27 28 29 30 31 32 33 34 35 36 37 38 39 40 41 42 43 44 45 46 47 48 49 50

000
ASUS45 KBOI 170710
RWRID
WEATHER ROUNDUP FOR IDAHO
NATIONAL WEATHER SERVICE BOISE ID
100 AM MDT WED SEP 17 2014

NOTE: "FAIR" INDICATES FEW OR NO CLOUDS BELOW 12000 FEET
WITH NO SIGNIFICANT WEATHER AND/OR OBSTRUCTIONS TO VISIBILITY

IDZ012-014-170800-
SOUTHWEST IDAHO


CITY           SKY/WX    TMP DP  RH WIND       PRES   REMARKS
BOISE          MOCLDY    75  42  30 SE8       29.82S
CALDWELL       MOCLDY    64  46  52 E7        29.82S
MOUNTAIN HOME  MOCLDY    65  37  35 E5        29.84S
$$

IDZ016-017-170800-
SOUTHCENTRAL IDAHO


CITY           SKY/WX    TMP DP  RH WIND       PRES   REMARKS
BURLEY         PTCLDY    59  46  62 NE6       29.93S
JEROME         PTCLDY    69  42  37 E9        29.93S
TWIN FALLS     PTCLDY    71  41  33 S9        29.92S
$$

IDZ019>023-170800-
SOUTHEAST IDAHO


CITY           SKY/WX    TMP DP  RH WIND       PRES   REMARKS
IDAHO FALLS    CLEAR     56  44  64 NE3       30.01S
POCATELLO      CLEAR     58  43  57 N9        29.98S
REXBURG        PTCLDY    54  44  69 NW3       30.02S
$$

IDZ006-010-011-018-031-032-170800-
CENTRAL IDAHO MOUNTAINS


CITY           SKY/WX    TMP DP  RH WIND       PRES   REMARKS
MCCALL         PTCLDY    54  44  69 CALM      29.98S
HAILEY         CLEAR     59  36  41 NW9       30.06S
STANLEY          N/A     47  34  60 E6        30.14S
SALMON         CLEAR     48  45  87 CALM      29.99R
CHALLIS        CLEAR     55  43  63 CALM      30.04R
$$

IDZ002-004-006-007-026-170800-
NORTHERN IDAHO


CITY           SKY/WX    TMP DP  RH WIND       PRES   REMARKS
LEWISTON       PTCLDY    68  35  29 SE5       29.80R
LOWELL           N/A     58  55  90 CALM      29.85S
COEUR D`ALENE  PTCLDY    54  43  66 E3        29.85R
MULLAN PASS    PTCLDY    62  37  39 S5        30.06S
$$



USA.gov is the U.S. government's official web portal to all federal, state and local government web resources and services.